Weather History for Friday Harbor, WA

Change the Weather History Date:

Tuesday, January 15, 2013

  Actual Average Record
Temperature  
Mean Temperature 37 °F -  
Max Temperature 41 °F 44 °F 55 °F (2004)
Min Temperature 33 °F 36 °F 21 °F (2007)
Degree Days  
Heating Degree Days 28    
Moisture  
Dew Point 34 °F    
Average Humidity 87    
Maximum Humidity 100    
Minimum Humidity 73    
Precipitation  
Precipitation 0.00 in - - ()
Sea Level Pressure  
Sea Level Pressure 30.68 in    
Wind  
Wind Speed 1 mph (North)    
Max Wind Speed 6 mph    
Max Gust Speed -    
Visibility 9 miles    
Events      
Averages and records for this station are not official NWS values.
T = Trace of Precipitation, MM = Missing Value Source: NWS Daily Summary

Daily Weather History Graph

Daily Weather History Graph

Search for Another Location

Airport:

Trip Planner

Search our weather history database for the weather conditions in past years. The results will help you decide how hot, cold, wet, or windy it might be!

Date:

Astronomy

Jan. 15, 2013 Rise Set
Actual Time 7:58 AM PST 4:45 PM PST
Civil Twilight 7:23 AM PST 5:20 PM PST
Nautical Twilight 6:44 AM PST 5:59 PM PST
Astronomical Twilight 6:06 AM PST 6:37 PM PST
Moon 9:41 AM PST (1/15) 10:09 PM PST (1/15)
Length of Visible Light 9h 57m
Length of Day
8h 46m
Waxing Crescent, 20% of the Moon is Illuminated
Jan 15
Waxing Crescent
Jan 18
First Quarter
Jan 26
Full
Feb 3
Last Quarter
Feb 9
New

Hourly Weather History & Observations

Time (PST) Temp. Windchill Dew Point Humidity Pressure Visibility Wind Dir Wind Speed Gust Speed Precip Events Conditions
12:53 AM 35.1 °F - 34.0 °F 96% 30.61 in 6.0 mi Calm Calm - 0.00 in   Overcast
1:53 AM 35.1 °F - 34.0 °F 96% 30.63 in 6.0 mi Calm Calm - N/A   Overcast
2:04 AM 35.6 °F - 33.8 °F 93% 30.62 in 7.0 mi Calm Calm - N/A   Overcast
2:53 AM 35.1 °F - 34.0 °F 96% 30.64 in 5.0 mi Calm Calm - N/A   Overcast
3:13 AM 33.8 °F - 33.8 °F 100% 30.64 in 6.0 mi Calm Calm - N/A   Overcast
4:53 AM 35.1 °F - 34.0 °F 96% 30.64 in 8.0 mi Calm Calm - N/A   Overcast
5:53 AM 35.1 °F - 34.0 °F 96% 30.65 in 8.0 mi Calm Calm - N/A   Overcast
6:53 AM 34.0 °F - 33.1 °F 96% 30.66 in 9.0 mi Calm Calm - N/A   Overcast
7:53 AM 35.1 °F - 34.0 °F 96% 30.69 in 10.0 mi Calm Calm - N/A   Overcast
8:53 AM 35.1 °F - 35.1 °F 100% 30.70 in 5.0 mi Calm Calm - N/A   Overcast
9:53 AM 37.9 °F - 35.1 °F 89% 30.71 in 10.0 mi Calm Calm - N/A   Overcast
10:53 AM 39.0 °F - 33.1 °F 79% 30.73 in 10.0 mi Calm Calm - N/A   Overcast
11:53 AM 39.9 °F 37.8 °F 33.1 °F 77% 30.72 in 10.0 mi North 3.5 mph - N/A   Overcast
12:53 PM 41.0 °F 38.0 °F 33.1 °F 73% 30.70 in 10.0 mi North 4.6 mph - N/A   Overcast
1:53 PM 41.0 °F 37.1 °F 33.1 °F 73% 30.71 in 10.0 mi North 5.8 mph - N/A   Overcast
2:45 PM 41.0 °F 39.0 °F 33.8 °F 76% 30.70 in 10.0 mi North 3.5 mph - N/A   Overcast
2:53 PM 39.9 °F 37.8 °F 33.1 °F 77% 30.71 in 10.0 mi North 3.5 mph - N/A   Overcast
3:53 PM 39.9 °F 37.8 °F 34.0 °F 79% 30.71 in 10.0 mi North 3.5 mph - N/A   Overcast
4:53 PM 39.9 °F - 34.0 °F 79% 30.71 in 10.0 mi Calm Calm - N/A   Overcast
5:53 PM 39.0 °F - 33.1 °F 79% 30.71 in 10.0 mi Calm Calm - N/A   Overcast
6:53 PM 39.0 °F - 33.1 °F 79% 30.71 in 10.0 mi Calm Calm - N/A   Overcast
7:53 PM 37.9 °F - 33.1 °F 83% 30.71 in 10.0 mi Calm Calm - N/A   Overcast
8:53 PM 37.9 °F - 34.0 °F 86% 30.70 in 10.0 mi Calm Calm - N/A   Overcast
10:53 PM 37.9 °F - 33.1 °F 83% 30.70 in 10.0 mi Calm Calm - N/A   Overcast